Satellite-Ground Cal/Val Region Overpasses Predictions

Prediction of Satellite NPP Overpassing Cal/Val Region: PacNW

Region Location: (Latitude: 10.00, Longitude: 139.50) to (Latitude: 22.70, Longitude: 165.60).

Table of predicted overpasses for the next 14.0 days since TLE Epoch: 2/27/2016
Interval Starting Time Starting Location Ending Time Ending Location
1 02/27/2016 14:47:01 ( 22.67, 163.52) 02/27/2016 14:50:36 ( 10.04, 160.52)
2 02/28/2016 03:37:36 ( 10.03, 145.68) 02/28/2016 03:41:11 ( 22.65, 142.68)
3 02/28/2016 14:31:11 ( 11.39, 165.59) 02/28/2016 14:31:34 ( 10.04, 165.28)
4 02/28/2016 16:09:29 ( 22.65, 142.90) 02/28/2016 16:13:04 ( 10.03, 139.90)
5 02/29/2016 03:18:34 ( 10.04, 150.44) 02/29/2016 03:22:09 ( 22.66, 147.44)
6 02/29/2016 15:50:26 ( 22.64, 147.66) 02/29/2016 15:54:01 ( 10.02, 144.66)
7 03/01/2016 02:59:31 ( 10.05, 155.19) 03/01/2016 03:03:06 ( 22.67, 152.20)
8 03/01/2016 15:31:23 ( 22.69, 152.43) 03/01/2016 15:34:59 ( 10.01, 149.42)
9 03/02/2016 02:40:29 ( 10.05, 159.95) 03/02/2016 02:44:04 ( 22.68, 156.95)
10 03/02/2016 15:12:20 ( 22.68, 157.19) 03/02/2016 15:15:56 ( 10.00, 154.17)
11 03/03/2016 02:21:25 ( 10.01, 164.72) 03/03/2016 02:25:01 ( 22.69, 161.71)
12 03/03/2016 14:53:18 ( 22.67, 161.94) 03/03/2016 14:56:53 ( 10.05, 158.94)
13 03/04/2016 03:43:53 ( 10.02, 144.10) 03/04/2016 03:47:28 ( 22.65, 141.10)
14 03/04/2016 14:35:32 ( 18.15, 165.59) 03/04/2016 14:37:50 ( 10.04, 163.70)
15 03/04/2016 16:15:45 ( 22.65, 141.32) 03/04/2016 16:17:53 ( 15.14, 139.51)
16 03/05/2016 03:24:50 ( 10.04, 148.86) 03/05/2016 03:28:25 ( 22.66, 145.86)
17 03/05/2016 15:56:43 ( 22.64, 146.08) 03/05/2016 16:00:18 ( 10.02, 143.08)
18 03/06/2016 03:05:48 ( 10.05, 153.61) 03/06/2016 03:09:23 ( 22.67, 150.62)
19 03/06/2016 15:37:40 ( 22.69, 150.85) 03/06/2016 15:41:16 ( 10.01, 147.84)
20 03/07/2016 02:46:44 ( 10.00, 158.38) 03/07/2016 02:50:20 ( 22.69, 155.37)
21 03/07/2016 15:18:37 ( 22.68, 155.61) 03/07/2016 15:22:12 ( 10.06, 152.61)
22 03/08/2016 02:27:42 ( 10.01, 163.14) 03/08/2016 02:31:18 ( 22.70, 160.13)
23
